DELTA 1 DEB, 8544

Orbit data source: Space-Track

DELTA 1 DEB, 8544 is space debris in SSO originally from a launch on Sun, 23 Jul 1972 UTC launched from the Air Force Western Test Range (AFWTR). Debris objects in space refer to the collection of defunct objects orbiting the Earth. Examples of debris include non-operational satellites, rocket bodies, and fragments generated from explosions, collisions, or faulty payload assembly.

Loading next visibility...
Identifier
8544, 1972-058GT
Orbit
SSO
Country
Flag of USUS
Related business
Manufacturer
Unknown
Mission
Spacecraft
Bus & Motor
Unknown
Mass
Unknown
Launch date (UTC)
1972-07-23 (53 years ago)
Launch vehicle
Unknown
Launch site
Air Force Western Test Range (AFWTR)
Object type
Payload
Rocket body
Debris
Shape & HBR
Unknown shape, 0.2 m
Radar Cross Section
Small (<0.1 m²)

Expand to show TLE details & history
Last TLE update: 2 days ago

TLE from 2 days ago
0 DELTA 1 DEB
1 08544U 72058GT  25350.76362082  .00000274  00000-0  31839-3 0  9992
2 08544  97.4546  88.5404 0841614 178.4639 181.9361 12.74147660494755
Epoch: 2025-12-16T18:19Z
TLE epoch observation values (Epoch: 2025-12-16T18:19:36.838Z)
Latitude
-0.0001°
Longitude
87.99376°
Altitude
2,019.342 km
Speed
6.595 km/s
True Right ascension
05h 54m 09s
True Declination
0° 00' 00"
Sunlit
Object was in full shadow at epoch
Visualization orbit readout
Latitude
Unknown
Longitude
Unknown
Altitude
Unknown
Speed
Unknown
Apparent Right ascension
Unknown
Apparent Declination
Unknown
Sunlit
N/A
Visualization observer readout
Local Sidereal Time
08:05:30
Azimuth
Unknown
Elevation
Unknown
Doppler factor
Unknown
Orbital elements
Apogee altitude
2,013.818 km
Perigee altitude
710.915 km
Semi-major axis
7,740.503 km
Eccentricity
0.08416
Inclination
97.4546°
RAAN
88.5404°
Arg. of periapsis
178.4639°
True anomaly
181.64137°
Mean anomaly
181.9361°
Eccentric anomaly
181.78583°
Mean motion
3.18705 °/min
Orbital period
112.96 mins
BSTAR
0.00031839
Loading maneuver chart data...
Computing Atmospheric mass density...
Loading historical data...
Loading historical data...
Loading historical data...
Loading historical data...
Loading historical data...
Loading historical data...
Loading historical data...

Documentation

Showing up to 5 results
|